Regional Weather Roundup
Issued by NWS Albany, NY

Home | Current Version | Previous Version | Text Only | Print | Product List | Glossary On
Versions: 1 2 3 4 5 6 7 8 9 10 11 12 13 14 15 16 17 18 19 20 21 22 23 24 25 26 27 28 29 30 31 32 33 34 35 36 37 38 39 40 41 42 43 44 45 46 47 48 49 50
000
ASUS41 KALY 240410
RWRALY

NEW YORK STATE HOURLY WEATHER ROUNDUP
NATIONAL WEATHER SERVICE ALBANY NY
1100 PM EST SUN NOV 23 2014

NOTE: "FAIR" INDICATES FEW OR NO CLOUDS BELOW 12,000 FEET WITH NO
SIGNIFICANT WEATHER AND/OR NO OBSTRUCTIONS TO VISIBILITY.

NYZ032-033-038>043-046>054-057>066-NYZ062>081-240500-
EAST


CITY           SKY/WX    TMP DP  RH WIND       PRES   REMARKS
ALBANY         CLOUDY    50  27  40 S9        30.00F
GLENS FALLS    MOCLDY    34  31  88 CALM      30.00F
POUGHKEEPSIE   CLOUDY    48  31  51 SE5       30.03F
NEWBURGH       MOCLDY    46  34  61 VRB6      30.03F
MONTGOMERY     CLOUDY    37  29  72 CALM      30.01F
WHITE PLAINS   CLOUDY    46  39  76 E6        30.03F
ISLIP          CLOUDY    47  44  90 E6        30.05F FOG
NEW YORK CITY  CLOUDY    51  48  89 E6        30.03F
CENTRAL PARK   CLOUDY    54  47  77 S3        30.05F
$$

NYZ005>009-017-018-044>046-055-056-240500-
CENTRAL


CITY           SKY/WX    TMP DP  RH WIND       PRES   REMARKS
FULTON         CLOUDY    50  34  54 SE9       29.81F
SYRACUSE       CLOUDY    54  36  50 SE15      29.83F
ROME           CLOUDY    48  36  63 E9        29.91F
ELMIRA         CLOUDY    53  41  63 VRB5      29.83F
BINGHAMTON     CLOUDY    47  35  63 SE13      29.88F
MONTICELLO     CLOUDY    41  28  60 E6        30.00F
$$

NYZ026>034-041>043-240500-
NORTH


CITY           SKY/WX    TMP DP  RH WIND       PRES   REMARKS
WATERTOWN      CLOUDY    56  33  42 S13G21    29.80F
FORT DRUM      NOT AVBL
MASSENA        CLOUDY    44  41  89 NE3       29.88F
SARANAC LAKE   PTCLDY    34  32  92 CALM      29.88F FOG
PLATTSBURGH    CLOUDY    48  40  73 S12       29.94F
$$

NYZ001>004-010>016-019>021-240500-
WEST


CITY           SKY/WX    TMP DP  RH WIND       PRES   REMARKS
NIAGARA FALLS  CLOUDY    52  37  56 S13       29.61F
BUFFALO        CLOUDY    53  38  56 S18G31    29.63F
DUNKIRK        LGT RAIN  54  40  59 S25G41    29.59F
JAMESTOWN      CLOUDY    48  37  66 S15G21    29.65F
WELLSVILLE     CLOUDY    49  37  63 S23G35    29.75F
ROCHESTER      CLOUDY    54  35  48 SE8       29.70F
PENN YAN       CLOUDY    53  39  59 S14G22    29.78F
$$

             KEY
       WCI = WIND CHILL INDEX
       VSB = VISIBILITY
       HX  = HEAT INDEX
$$


USA.gov is the U.S. government's official web portal to all federal, state and local government web resources and services.